TimeMST,TemperatureF,Dew PointF,Humidity,Sea Level PressureIn,VisibilityMPH,Wind Direction,Wind SpeedMPH,Gust SpeedMPH,PrecipitationIn,Events,Conditions,WindDirDegrees,DateUTC
12:15 AM,37.4,17.6,45,30.17,10.0,WSW,16.1,28.8,N/A,,Clear,240,2012-12-04 07:15:00
12:35 AM,35.6,15.8,44,30.17,10.0,WSW,10.4,23.0,N/A,,Clear,240,2012-12-04 07:35:00
12:55 AM,35.6,17.6,48,30.15,10.0,WSW,17.3,33.4,N/A,,Clear,240,2012-12-04 07:55:00
1:15 AM,37.4,15.8,41,30.15,10.0,WSW,16.1,26.5,N/A,,Clear,240,2012-12-04 08:15:00
1:56 AM,37.4,17.6,45,30.15,10.0,SW,15.0,24.2,N/A,,Clear,230,2012-12-04 08:56:00
2:35 AM,37.4,15.8,41,30.15,10.0,West,4.6,21.9,N/A,,Clear,260,2012-12-04 09:35:00
2:55 AM,35.6,17.6,48,30.14,10.0,West,5.8,-,N/A,,Clear,270,2012-12-04 09:55:00
3:35 AM,35.6,17.6,48,30.14,10.0,SSW,20.7,25.3,N/A,,Clear,200,2012-12-04 10:35:00
3:55 AM,37.4,17.6,45,30.13,10.0,SW,9.2,19.6,N/A,,Clear,230,2012-12-04 10:55:00
4:15 AM,37.4,15.8,41,30.14,10.0,SW,11.5,19.6,N/A,,Clear,230,2012-12-04 11:15:00
4:35 AM,35.6,15.8,44,30.14,10.0,SSW,18.4,-,N/A,,Clear,200,2012-12-04 11:35:00
4:55 AM,35.6,15.8,44,30.15,10.0,SSW,15.0,24.2,N/A,,Clear,200,2012-12-04 11:55:00
5:15 AM,35.6,14.0,41,30.13,10.0,SSW,17.3,-,N/A,,Clear,200,2012-12-04 12:15:00
5:35 AM,35.6,12.2,38,30.13,10.0,SSE,15.0,-,N/A,,Clear,160,2012-12-04 12:35:00
5:55 AM,33.8,12.2,41,30.13,10.0,SSE,16.1,-,N/A,,Clear,160,2012-12-04 12:55:00
6:15 AM,33.8,14.0,44,30.13,10.0,SSE,11.5,-,N/A,,Clear,160,2012-12-04 13:15:00
6:35 AM,33.8,14.0,44,30.13,10.0,South,11.5,-,N/A,,Clear,170,2012-12-04 13:35:00
6:55 AM,33.8,15.8,48,30.12,10.0,South,15.0,-,N/A,,Clear,170,2012-12-04 13:55:00
7:35 AM,32.0,15.8,51,30.13,10.0,South,4.6,-,N/A,,Clear,180,2012-12-04 14:35:00
7:55 AM,32.0,15.8,51,30.13,10.0,SSW,5.8,-,N/A,,Clear,200,2012-12-04 14:55:00
8:15 AM,35.6,15.8,44,30.13,10.0,South,12.7,19.6,N/A,,Clear,190,2012-12-04 15:15:00
8:35 AM,35.6,15.8,44,30.12,10.0,SSE,4.6,-,N/A,,Partly Cloudy,160,2012-12-04 15:35:00
8:55 AM,37.4,15.8,41,30.11,10.0,South,8.1,-,N/A,,Mostly Cloudy,190,2012-12-04 15:55:00
9:15 AM,39.2,17.6,42,30.09,10.0,South,13.8,-,N/A,,Scattered Clouds,170,2012-12-04 16:15:00
9:35 AM,39.2,19.4,45,30.09,10.0,South,11.5,-,N/A,,Mostly Cloudy,180,2012-12-04 16:35:00
9:55 AM,42.8,21.2,42,30.09,10.0,SSW,15.0,24.2,N/A,,Mostly Cloudy,210,2012-12-04 16:55:00
10:15 AM,42.8,21.2,42,30.08,10.0,WSW,10.4,20.7,N/A,,Overcast,240,2012-12-04 17:15:00
10:35 AM,44.6,21.2,39,30.06,10.0,WSW,16.1,28.8,N/A,,Overcast,250,2012-12-04 17:35:00
12:15 PM,50.0,24.8,37,30.02,-9999.0,West,20.7,29.9,N/A,,Unknown,260,2012-12-04 19:15:00
12:35 PM,50.0,24.8,37,30.01,10.0,West,17.3,27.6,N/A,,Overcast,260,2012-12-04 19:35:00
1:15 PM,51.8,24.8,35,30.01,10.0,West,23.0,32.2,N/A,,Unknown,260,2012-12-04 20:15:00
1:35 PM,51.8,24.8,35,30.01,10.0,West,19.6,32.2,N/A,,Scattered Clouds,260,2012-12-04 20:35:00
1:55 PM,51.8,24.8,35,30.00,10.0,WSW,27.6,39.1,N/A,,Partly Cloudy,250,2012-12-04 20:55:00
2:15 PM,51.8,24.8,35,30.00,10.0,West,21.9,38.0,N/A,,Clear,260,2012-12-04 21:15:00
2:35 PM,51.8,26.6,38,30.01,10.0,West,13.8,29.9,N/A,,Partly Cloudy,260,2012-12-04 21:35:00
2:55 PM,51.8,26.6,38,30.02,10.0,WSW,23.0,35.7,N/A,,Mostly Cloudy,250,2012-12-04 21:55:00
3:15 PM,51.8,26.6,38,30.02,10.0,WSW,15.0,28.8,N/A,,Mostly Cloudy,250,2012-12-04 22:15:00
3:35 PM,50.0,26.6,40,30.03,10.0,WSW,12.7,23.0,N/A,,Scattered Clouds,240,2012-12-04 22:35:00
3:55 PM,50.0,26.6,40,30.03,10.0,West,16.1,24.2,N/A,,Mostly Cloudy,260,2012-12-04 22:55:00
4:15 PM,50.0,26.6,40,30.03,10.0,WSW,13.8,21.9,N/A,,Mostly Cloudy,250,2012-12-04 23:15:00
4:35 PM,48.2,26.6,43,30.03,10.0,WSW,8.1,-,N/A,,Scattered Clouds,240,2012-12-04 23:35:00
4:55 PM,48.2,26.6,43,30.04,10.0,SSW,9.2,-,N/A,,Mostly Cloudy,210,2012-12-04 23:55:00
5:15 PM,46.4,24.8,43,30.03,10.0,SSE,9.2,-,N/A,,Overcast,160,2012-12-05 00:15:00
5:35 PM,42.8,17.6,36,30.04,10.0,South,13.8,18.4,N/A,,Overcast,180,2012-12-05 00:35:00
5:55 PM,41.0,19.4,42,30.03,10.0,SSE,15.0,23.0,N/A,,Scattered Clouds,160,2012-12-05 00:55:00
6:15 PM,42.8,21.2,42,30.02,10.0,South,6.9,-,N/A,,Clear,190,2012-12-05 01:15:00
6:35 PM,46.4,28.4,50,30.01,10.0,South,12.7,17.3,N/A,,Clear,190,2012-12-05 01:35:00
6:55 PM,39.2,21.2,49,30.01,10.0,South,11.5,-,N/A,,Clear,180,2012-12-05 01:55:00
7:15 PM,42.8,21.2,42,30.01,10.0,SSE,16.1,20.7,N/A,,Clear,160,2012-12-05 02:15:00
7:35 PM,44.6,24.8,46,30.00,10.0,SSW,16.1,20.7,N/A,,Clear,200,2012-12-05 02:35:00
7:55 PM,46.4,28.4,50,30.00,10.0,South,15.0,27.6,N/A,,Clear,190,2012-12-05 02:55:00
8:15 PM,48.2,28.4,46,30.00,10.0,WSW,13.8,18.4,N/A,,Clear,240,2012-12-05 03:15:00
8:35 PM,48.2,28.4,46,30.00,10.0,South,11.5,28.8,N/A,,Clear,180,2012-12-05 03:35:00
8:55 PM,50.0,30.2,47,29.99,10.0,East,4.6,18.4,N/A,,Clear,90,2012-12-05 03:55:00
9:15 PM,50.0,30.2,47,29.99,10.0,SSE,8.1,18.4,N/A,,Clear,160,2012-12-05 04:15:00
9:35 PM,50.0,30.2,47,29.98,10.0,SSE,13.8,21.9,N/A,,Partly Cloudy,160,2012-12-05 04:35:00
9:55 PM,48.2,30.2,50,29.97,10.0,ESE,10.4,17.3,N/A,,Scattered Clouds,120,2012-12-05 04:55:00
10:15 PM,51.8,30.2,44,29.97,10.0,SSW,11.5,16.1,N/A,,Partly Cloudy,200,2012-12-05 05:15:00
10:35 PM,50.0,32.0,50,29.97,10.0,South,12.7,-,N/A,,Clear,170,2012-12-05 05:35:00
10:55 PM,48.2,28.4,46,29.96,10.0,South,15.0,23.0,N/A,,Partly Cloudy,170,2012-12-05 05:55:00
11:15 PM,50.0,32.0,50,29.96,10.0,SW,11.5,19.6,N/A,,Clear,220,2012-12-05 06:15:00
11:35 PM,51.8,32.0,47,29.96,10.0,SW,10.4,20.7,N/A,,Scattered Clouds,230,2012-12-05 06:35:00
11:55 PM,51.8,32.0,47,29.95,10.0,West,8.1,18.4,N/A,,Overcast,260,2012-12-05 06:55:00